Location: Olsztyn
(53.7767°N, 20.4765°E)
Time: 18:53:58
(UTC+02:00)

A-11 Canister half - Pass Details

Date: 20 January 2022
Orbit: 1513 x 1686 km, 47.2° (Epoch: 24 May)

Event Time Altitude Azimuth Distance (km) Brightness Sun altitude
Rises 22:15:51 0° 276° (W) 4,672 11.9 -51.8°
Reaches altitude 10° 22:19:00 10° 271° (W) 3,681 11.2 -52.0°
Enters shadow 22:20:18 15° 268° (W) 3,292 10.9 -52.2°
